Location: Harbor View
(36.2448°N, 86.5797°W)
Time: 07:07:27
(UTC+00:00)

COSMO-SKYMED 1 - Pass Details

Date: 05 March 2021
Orbit: 621 x 623 km, 97.9° (Epoch: 13 April)

Event Time Altitude Azimuth Distance (km) Brightness Sun altitude
Rises 09:50:08 0° 121° (ESE) 2,894 6.6 -29.0°
Reaches altitude 10° 09:53:21 10° 95° (E) 1,993 6.0 -28.4°
Maximum altitude 09:55:26 13° 66° (ENE) 1,776 5.8 -28.0°
Drops below altitude 10° 09:57:33 10° 37° (NE) 1,999 5.8 -27.5°
Sets 10:00:46 0° 11° (N) 2,911 6.3 -26.9°
